(215252) = 2001 MB12

Discovered at Palomar on 2001-06-21 by NEAT.

Orbit

Orbit type: Main Belt

Note: WebGL enabled browser required.

epoch2023-09-13.0
epoch JD2460200.5
perihelion date2022-04-27.09781
perihelion JD2459696.59781
argument of perihelion (°)216.91073
ascending node (°)78.69982
inclination (°)10.53192
eccentricity0.1634111
perihelion distance (AU)2.1634795
Tisserand w.r.t. Jupiter3.4
ΔV w.r.t. Earth (km/sec)9.8
semimajor axis (AU)2.5860725
mean anomaly (°)119.42329
mean daily motion (°/day)0.23699700
aphelion distance (AU)3.009
period (years)4.16
P-vector [x]0.42233022
P-vector [y]-0.78185755
P-vector [z]-0.45862398
Q-vector [x]0.88854388
Q-vector [y]0.45713944
Q-vector [z]0.03890117
absolute magnitude16.41
phase slope0.15
uncertainty0
referenceMPEC 2023-Y18
observations used503
oppositions15
arc length (days)8212
first opposition used2001
last opposition used2023
residual rms (arc-secs)0.70
perturbers coarse indicatorM-v
perturbers precise indicator003Ek
first observation date used2001-06-21.0
last observation date used2023-12-15.0
computer nameMPCLINUX
JD of orbit computation2456966.836580
perihelion JD uncertainty (days)1.3216E-04
argument of perihelion uncertainty (°)4.4949E-05
ascending node uncertainty (°)3.1506E-05
inclination uncertainty (°)7.1816E-06
eccentricity uncertainty 4.1171E-08
perihelion distance uncertainty (AU)1.1185E-07
Minimum Orbit Intersection Distances (in AU)
for orbit epoch: 2460200.5, reference: E2023-Y18
Mercury1.71289
Venus1.4383
Earth1.15666
Mars0.73675
Jupiter2.17863
Saturn6.08535
Uranus15.5913
Neptune27.0803

Observations

517 total observations over interval: 2001 06 21.36045 – 2023 12 15.305555
These data are available for download (format description).

Date (UT) J2000 RA J2000 Dec Magn Location Ref
2001 06 21.36045 20 40 04.83 -27 55 41.2 19.9   644 – Palomar Mountain/NEAT MPS 31858
2001 06 21.37102 20 40 04.69 -27 55 47.3 19.8   644 – Palomar Mountain/NEAT MPS 31858
2001 06 21.38160 20 40 04.51 -27 55 53.2 19.4   644 – Palomar Mountain/NEAT MPS 31858
2001 06 27.32973 20 38 24.30 -28 52 21.8 19.6   644 – Palomar Mountain/NEAT MPS 31858
2001 06 27.33092 20 38 24.24 -28 52 19.8 19.8   644 – Palomar Mountain/NEAT MPS 31858
2001 06 27.34135 20 38 24.04 -28 52 28.9 19.5   644 – Palomar Mountain/NEAT MPS 31858
2001 06 27.34253 20 38 23.96 -28 52 26.0 20.1   644 – Palomar Mountain/NEAT MPS 31858
2001 06 27.35199 20 38 23.75 -28 52 34.9 19.7   644 – Palomar Mountain/NEAT MPS 31858
2001 06 30.33852 20 37 07.56 -29 21 48.6 19.6   644 – Palomar Mountain/NEAT MPS 31858
2001 06 30.34924 20 37 07.23 -29 21 54.9 19.7   644 – Palomar Mountain/NEAT MPS 31858
2001 06 30.36003 20 37 06.87 -29 22 01.2 19.5   644 – Palomar Mountain/NEAT MPS 31858
2001 07 12.28152 20 29 30.99 -31 19 05.4 20.5   644 – Palomar Mountain/NEAT MPS 32386
2001 07 12.29203 20 29 30.47 -31 19 10.7 20.8   644 – Palomar Mountain/NEAT MPS 32386
2001 07 12.30265 20 29 29.93 -31 19 17.2 20.2   644 – Palomar Mountain/NEAT MPS 32386
2001 07 16.42901 20 26 05.83 -31 57 40.7 19.3   644 – Palomar Mountain/NEAT MPS 32386
2001 07 16.44100 20 26 05.18 -31 57 46.5 19.2   644 – Palomar Mountain/NEAT MPS 32386
2001 07 16.45383 20 26 04.44 -31 57 53.4 19.4   644 – Palomar Mountain/NEAT MPS 32386
2001 07 18.33023 20 24 26.73 -32 14 36.5 18.7   644 – Palomar Mountain/NEAT MPS 32386
2001 07 18.34017 20 24 26.18 -32 14 41.8 18.6   644 – Palomar Mountain/NEAT MPS 32386
2001 07 18.35029 20 24 25.60 -32 14 47.1 18.7   644 – Palomar Mountain/NEAT MPS 32387
2001 07 25.26629 20 18 07.25 -33 11 00.7 19.0   644 – Palomar Mountain/NEAT MPS 32387
2001 07 25.27740 20 18 06.60 -33 11 05.7 20.2   644 – Palomar Mountain/NEAT MPS 32387
2001 07 25.28731 20 18 06.03 -33 11 10.3 20.1   644 – Palomar Mountain/NEAT MPS 32387
2001 07 29.24386 20 14 26.71 -33 38 47.6 19.9   644 – Palomar Mountain/NEAT MPS 32387
2001 07 29.25500 20 14 26.11 -33 38 52.1 19.6   644 – Palomar Mountain/NEAT MPS 32387
2001 07 29.26604 20 14 25.42 -33 38 57.0 20.3   644 – Palomar Mountain/NEAT MPS 32387
2006 11 16.18150 03 49 56.92 +13 37 17.6 20.3 V 691 – Steward Observatory, Kitt Peak-Spacewatch MPS 190297
2006 11 16.19143 03 49 56.29 +13 37 17.5 20.2 V 691 – Steward Observatory, Kitt Peak-Spacewatch MPS 190297
2006 11 16.20136 03 49 55.67 +13 37 17.7 20.2 V 691 – Steward Observatory, Kitt Peak-Spacewatch MPS 190297
2006 11 16.27554 03 49 50.91 +13 37 17.0 19.9 V G96 – Mt. Lemmon Survey MPS 190297
2006 11 16.28233 03 49 50.44 +13 37 16.9 19.8 V G96 – Mt. Lemmon Survey MPS 190297
2006 11 16.28926 03 49 49.98 +13 37 17.0 19.9 V G96 – Mt. Lemmon Survey MPS 190297
2006 11 16.29605 03 49 49.58 +13 37 16.8 19.8 V G96 – Mt. Lemmon Survey MPS 190297
2006 11 23.13062 03 42 41.65 +13 37 45.7 20.5 V 691 – Steward Observatory, Kitt Peak-Spacewatch MPS 190297
2006 11 23.14054 03 42 41.00 +13 37 45.6 20.4 V 691 – Steward Observatory, Kitt Peak-Spacewatch MPS 190297
2006 11 23.15045 03 42 40.37 +13 37 46.1 20.4 V 691 – Steward Observatory, Kitt Peak-Spacewatch MPS 190297
2006 11 27.13152 03 38 35.80 +13 39 03.5   691 – Steward Observatory, Kitt Peak-Spacewatch MPS 190297
2006 11 27.14143 03 38 35.18 +13 39 03.8   691 – Steward Observatory, Kitt Peak-Spacewatch MPS 190297
2006 11 27.15136 03 38 34.56 +13 39 04.5   691 – Steward Observatory, Kitt Peak-Spacewatch MPS 190297
2006 12 21.19550 03 19 05.73 +14 09 17.2 20.0 V G96 – Mt. Lemmon Survey MPS 191825
2006 12 21.20160 03 19 05.52 +14 09 17.9 20.8 V G96 – Mt. Lemmon Survey MPS 191825
2006 12 21.20782 03 19 05.34 +14 09 18.6 20.4 V G96 – Mt. Lemmon Survey MPS 191825
2006 12 21.21396 03 19 05.12 +14 09 19.6 20.6 V G96 – Mt. Lemmon Survey MPS 191825
2008 03 01.35340 09 13 50.80 +30 06 52.8 20.8 V G96 – Mt. Lemmon Survey MPS 240610
2008 03 01.35993 09 13 50.52 +30 06 53.7 20.8 V G96 – Mt. Lemmon Survey MPS 240610
2008 03 01.36642 09 13 50.16 +30 06 54.6 20.8 V G96 – Mt. Lemmon Survey MPS 240610
2008 03 01.37302 09 13 49.83 +30 06 55.3 20.8 V G96 – Mt. Lemmon Survey MPS 240610
2009 04 02.47333 16 36 12.38 -14 24 46.0 20.2 V G96 – Mt. Lemmon Survey MPS 282468
2009 04 02.48157 16 36 12.56 -14 24 46.8 20.4 V G96 – Mt. Lemmon Survey MPS 282468
2009 04 02.48988 16 36 12.63 -14 24 47.0 20.5 V G96 – Mt. Lemmon Survey MPS 282468
2009 04 02.49810 16 36 12.74 -14 24 48.2 20.1 V G96 – Mt. Lemmon Survey MPS 282468
2009 05 01.40220 16 31 15.38 -15 06 46.0 19.1 V G96 – Mt. Lemmon Survey MPS 286409
2009 05 01.41868 16 31 14.73 -15 06 47.5 19.0 V G96 – Mt. Lemmon Survey MPS 286409
2009 05 01.42692 16 31 14.37 -15 06 48.3 19.1 V G96 – Mt. Lemmon Survey MPS 286410
2009 05 26.27722 16 09 25.12 -16 03 05.7 18.7 V 703 – Catalina Sky Survey MPS 287349
2009 05 26.28502 16 09 24.58 -16 03 08.0 18.4 V 703 – Catalina Sky Survey MPS 287349
2009 05 26.29281 16 09 24.04 -16 03 09.6 18.3 V 703 – Catalina Sky Survey MPS 287349
2009 05 26.30060 16 09 23.65 -16 03 11.1 18.2 V 703 – Catalina Sky Survey MPS 287349
2009 05 29.30870 16 06 16.38 -16 11 55.9 18.5 V G96 – Mt. Lemmon Survey MPS 287934
2009 05 29.31422 16 06 16.02 -16 11 56.9 18.6 V G96 – Mt. Lemmon Survey MPS 287934
2009 05 29.31979 16 06 15.66 -16 11 58.0 18.6 V G96 – Mt. Lemmon Survey MPS 287934
2009 05 29.32539 16 06 15.30 -16 11 58.9 18.6 V G96 – Mt. Lemmon Survey MPS 287934
2009 05 29.65514 16 05 54.70 -16 12 51.3 18.6 V E12 – Siding Spring Survey MPS 287934
2009 05 29.66399 16 05 54.09 -16 12 52.9 18.8 V E12 – Siding Spring Survey MPS 287934
2009 05 29.67286 16 05 53.55 -16 12 54.2 18.6 V E12 – Siding Spring Survey MPS 287934
2009 05 29.68176 16 05 52.98 -16 12 56.0 18.7 V E12 – Siding Spring Survey MPS 287934
2009 05 31.29740 16 04 13.22 -16 17 58.7 18.6 V G96 – Mt. Lemmon Survey MPS 287934
2009 05 31.30560 16 04 12.72 -16 18 00.2 18.5 V G96 – Mt. Lemmon Survey MPS 287934
2009 05 31.32729 16 04 11.35 -16 18 04.3 18.6 V G96 – Mt. Lemmon Survey MPS 287934
2009 06 01.27619 16 03 13.14 -16 21 01.8 18.5 V G96 – Mt. Lemmon Survey MPS 287934
2009 06 01.28250 16 03 12.70 -16 21 03.1 18.6 V G96 – Mt. Lemmon Survey MPS 287934
2009 06 01.28882 16 03 12.31 -16 21 04.4 18.5 V G96 – Mt. Lemmon Survey MPS 287934
2009 06 01.29515 16 03 11.91 -16 21 06.0 18.2 V G96 – Mt. Lemmon Survey MPS 287934
2009 06 01.33311 16 03 09.46 -16 21 12.6 18.7 V G96 – Mt. Lemmon Survey MPS 287934
2009 06 01.33572 16 03 09.28 -16 21 13.0 18.6 V G96 – Mt. Lemmon Survey MPS 287934
2009 06 01.33917 16 03 09.10 -16 21 13.5 18.6 V G96 – Mt. Lemmon Survey MPS 287934
2009 06 01.34185 16 03 08.89 -16 21 14.1 18.5 V G96 – Mt. Lemmon Survey MPS 287934
2009 06 01.34542 16 03 08.71 -16 21 14.8 18.5 V G96 – Mt. Lemmon Survey MPS 287934
2009 06 01.34808 16 03 08.49 -16 21 15.3 18.5 V G96 – Mt. Lemmon Survey MPS 287934
2009 06 01.35163 16 03 08.31 -16 21 15.9 18.6 V G96 – Mt. Lemmon Survey MPS 287935
2009 06 01.35431 16 03 08.10 -16 21 16.4 18.5 V G96 – Mt. Lemmon Survey MPS 287935
2009 06 19.24690 15 47 07.98 -17 26 30.7 18.9 V G96 – Mt. Lemmon Survey MPS 288986
2009 06 19.25310 15 47 07.69 -17 26 31.9 19.2 V G96 – Mt. Lemmon Survey MPS 288986
2009 06 19.25935 15 47 07.40 -17 26 33.4 19.2 V G96 – Mt. Lemmon Survey MPS 288986
2009 06 19.26566 15 47 07.15 -17 26 34.9 19.2 V G96 – Mt. Lemmon Survey MPS 288986
2009 06 27.22398 15 42 22.96 -18 01 40.8 19.0 V G96 – Mt. Lemmon Survey MPS 289404
2009 06 27.22767 15 42 22.82 -18 01 42.2 19.4 V G96 – Mt. Lemmon Survey MPS 289404
2009 06 27.22910 15 42 22.78 -18 01 42.3 19.4 V G96 – Mt. Lemmon Survey MPS 289404
2009 06 27.23159 15 42 22.68 -18 01 43.1 19.2 V G96 – Mt. Lemmon Survey MPS 289404
2010 08 07.91533 03 00 50.99 +06 45 43.1   C51 – WISE MPS 344725
2010 08 08.04764 03 00 58.25 +06 46 02.4   C51 – WISE MPS 344725
2010 08 08.17994 03 01 05.37 +06 46 21.0   C51 – WISE MPS 344725
2010 08 08.31225 03 01 12.66 +06 46 38.2   C51 – WISE MPS 344725
2010 08 08.44455 03 01 19.82 +06 46 56.4   C51 – WISE MPS 344725
2010 08 08.51064 03 01 23.34 +06 47 05.9   C51 – WISE MPS 344725
2010 08 08.57685 03 01 26.99 +06 47 13.8   C51 – WISE MPS 344725
2010 08 08.64294 03 01 30.50 +06 47 21.9   C51 – WISE MPS 344725
